Flag for American Samoa Weather past 2 weeks in Pago Pago, American Samoa

78 °F

Rain showers. Low clouds.

Feels Like: 79 °F
Forecast: 79 / 88 °F
Wind: 10 mph from East

Location: Pago Pago / Int. Airp.

Current Time: Nov 27, 2015 at 9:47:22 PM

Latest Report: Nov 27, 2015 at 8:50 PM

Visibility: 7 mi

Pressure: 29.59 "Hg

Humidity: 94%

Dew point: 76 °F

Location of Pago PagoLocation

Historic Weather in Pago Pago — Graph


Pago Pago temperature yesterday

Maximum temperature yesterday: 83 °F (at 1:52 PM)
Minimum temperature yesterday: 76 °F (at 7:52 AM)
Average temperature yesterday: 80 °F

Past Weeks' High & Low Weather Summary

High100 °F (Nov 21, 8:52 AM)96% (Nov 15, 12:50 AM)29.90 "Hg (Nov 15, 12:50 AM)
Low75 °F (Nov 15, 3:50 AM)50% (Nov 21, 8:52 AM)29.57 "Hg (Nov 27, 5:50 PM)
Average82 °F87%29.79 "Hg
* Reported Nov 12 8:51 PM — Nov 27 8:50 PM, Pago Pago, Weather by CustomWeather, © 2015

Note: Actual official high and low records may vary slightly from our data, if they occured in-between our weather recording intervals... More about our weather records


Pago Pago weather history for previous 24 hours

Time TempWeatherWind HumidityBarometerVisibility
8:50 PM
Fri, Nov 27
78 °FRain showers. Low clouds.10 mph94%29.59 "Hg7 mi
7:51 PM78 °FSprinkles. Low clouds.12 mph95%29.58 "Hg7 mi
6:50 PM78 °FSprinkles. Low clouds.8 mph94%29.57 "Hg7 mi
5:50 PM78 °FSprinkles. Overcast.8 mph94%29.57 "Hg7 mi
4:50 PM77 °FRain showers. Light fog.6 mph94%29.57 "Hg7 mi
2:52 PM81 °FSprinkles. Mostly cloudy.22 mph89%29.57 "Hg10 mi
12:53 PM84 °FMostly cloudy.14 mph84%29.62 "Hg10 mi
11:50 AM83 °FSprinkles. Mostly cloudy.12 mph87%29.62 "Hg10 mi
10:50 AM81 °FSprinkles. Cloudy.8 mph89%29.65 "Hg8 mi
10:00 AM79 °FSprinkles. Mostly cloudy.5 mph90%29.66 "Hg8 mi
9:52 AM79 °FSprinkles. Mostly cloudy.5 mph90%29.66 "Hg8 mi
8:53 AM79 °FSprinkles. Mostly cloudy.5 mph89%29.68 "Hg8 mi
7:54 AM79 °FSprinkles. Cloudy.6 mph89%29.69 "Hg10 mi
6:50 AM79 °FSprinkles. Cloudy.3 mph90%29.67 "Hg10 mi
5:52 AM78 °FSprinkles. Cloudy.3 mph90%29.65 "Hg10 mi
4:53 AM78 °FOvercast.5 mph91%29.62 "Hg10 mi
3:53 AM78 °FSprinkles. Mostly cloudy.3 mph94%29.62 "Hg5 mi
2:51 AM78 °FSprinkles. Mostly cloudy.3 mph96%29.63 "Hg5 mi
1:53 AM78 °FSprinkles. Overcast.2 mph95%29.65 "Hg4 mi
12:53 AM77 °FSprinkles. Overcast.3 mph94%29.67 "Hg5 mi
11:51 PM
Thu, Nov 26
79 °FSprinkles. Overcast.3 mph89%29.68 "Hg7 mi
10:50 PM79 °FSprinkles. Overcast.5 mph90%29.69 "Hg10 mi
10:00 PM79 °FSprinkles. Overcast.6 mph93%29.70 "Hg8 mi
9:50 PM79 °FSprinkles. Overcast.6 mph93%29.70 "Hg8 mi
Weather by CustomWeather, © 2015

See weather overviewHow to use our weather pages